Back to catalog

O3B FM18

AliveCommunicationsMEO
NORAD 44115·PAYLOAD·🇱🇺 Luxembourg

Launched Apr 4, 2019 from Guiana Space Centre

Loading…

Next Passes (next 24 hours)

TLE

FreshSource: CelesTrak SupGP

Epoch: Sep 13, 2026, 19:00 UTC

1 44115C 19020D   26256.79166667  .00000000  00000+0  00000+0 0  2560
2 44115   0.0546 353.3513 0002746 180.0016 140.9384  5.00115556    18

Track O3B FM18 in real time with AllMySat

Download on the App Store